Flag for Germany Weather past 2 weeks in Aachen, North Rhine-Westphalia, Germany

Now
55 °F

Light rain. Mostly cloudy.


Feels Like: 55 °F
Forecast: 50 / 64 °F
Wind: 3 mph from Southwest

Location: Geilenkirchen Airport

Current Time: Sep 2, 2015 at 11:57:57 PM

Latest Report: Sep 2, 2015 at 10:50 PM


Visibility: N/A

Pressure: 30.01 "Hg

Humidity: 88%

Dew point: 52 °F

Location of AachenLocation

Historic Weather in Aachen — Graph

°F

Aachen temperature yesterday

Maximum temperature yesterday: 70 °F (at 12:50 AM)
Minimum temperature yesterday: 54 °F (at 11:50 PM)
Average temperature yesterday: 61 °F

Past Weeks' High & Low Weather Summary

 TemperatureHumidityPressure
High90 °F (Aug 31, 3:50 PM)100% (Aug 24, 4:50 AM)30.24 "Hg (Aug 24, 4:50 AM)
Low50 °F (Aug 20, 6:50 AM)33% (Aug 31, 3:50 PM)29.53 "Hg (Aug 24, 2:50 PM)
Average65 °F73%29.95 "Hg
* Reported Aug 18 9:50 PM — Sep 2 9:50 PM, Aachen, Weather by CustomWeather, © 2015

Note: Actual official high and low records may vary slightly from our data, if they occured in-between our weather recording intervals... More about our weather records

Advertising

Aachen weather history for previous 24 hours

 ConditionsComfort  
Time TempWeatherWind HumidityBarometerVisibility
9:50 PM
Wed, Sep 2
55 °FLight rain. Partly cloudy.2 mph88%30.01 "HgN/A
8:50 PM55 °FSunny.1 mph88%30.01 "Hg10 mi
7:50 PM59 °FPartly sunny.2 mph77%30.01 "HgN/A
6:50 PM57 °FPartly sunny.3 mph82%30.01 "HgN/A
5:50 PM61 °FScattered showers. Broken clouds.7 mph72%30.01 "Hg6 mi
4:50 PM61 °FPartly sunny.5 mph77%30.01 "HgN/A
3:50 PM59 °FScattered showers. Partly sunny.5 mph82%30.01 "HgN/A
2:50 PM61 °FScattered showers. Broken clouds.10 mph72%30.01 "HgN/A
1:50 PM64 °FScattered clouds.8 mph60%30.01 "HgN/A
12:50 PM63 °FScattered clouds.10 mph68%30.04 "HgN/A
11:50 AM61 °FScattered clouds.8 mph72%30.04 "HgN/A
10:50 AM61 °FScattered clouds.8 mph77%30.04 "HgN/A
9:50 AM59 °FScattered clouds.6 mph82%30.04 "HgN/A
8:50 AM57 °FPassing clouds.5 mph82%30.04 "HgN/A
7:50 AM55 °FScattered clouds.2 mph88%30.04 "HgN/A
6:50 AM54 °FPassing clouds.2 mph94%30.04 "HgN/A
5:50 AM54 °FPassing clouds.5 mph88%30.07 "HgN/A
4:50 AM52 °FPassing clouds.2 mph94%30.07 "HgN/A
3:50 AM54 °FClear.2 mph88%30.07 "Hg10 mi
2:50 AM54 °FClear.3 mph88%30.07 "Hg10 mi
1:50 AM54 °FClear.1 mph88%30.07 "Hg10 mi
12:50 AM55 °FClear.2 mph88%30.07 "Hg10 mi
11:50 PM
Tue, Sep 1
54 °FClear.3 mph88%30.07 "Hg10 mi
Weather by CustomWeather, © 2015

See weather overviewHow to use our weather pages